Location: ???????
(55.3754°N, 39.3545°E)
Time: 15:26:11
(UTC+00:00)

Cosmos 1943 Rocket - Pass Details

Date: 14 April 2026
Orbit: 810 x 844 km, 71.0° (Epoch: 16 May)

Event Time Altitude Azimuth Distance (km) Brightness Sun altitude
Rises 19:05:00 0° 320° (NW) 3,414 7.0 -18.9°
Reaches altitude 10° 19:08:07 10° 303° (WNW) 2,474 5.7 -19.2°
Maximum altitude 19:11:57 19° 260° (W) 1,909 4.3 -19.5°
Drops below altitude 10° 19:15:46 10° 217° (SW) 2,457 4.4 -19.8°
Enters shadow 19:16:38 - 211° (SSW) 2,688 4.6 -19.9°
